Year,Month,Day,Hour,Minute,Value (Times are PST for insolation in W/m^2)
2008,04,01,00,00,0.00
2008,04,01,00,01,0.00
2008,04,01,00,02,0.00
2008,04,01,00,03,0.00
2008,04,01,00,04,0.00
2008,04,01,00,05,0.00
2008,04,01,00,06,0.00
2008,04,01,00,07,0.00
2008,04,01,00,08,0.00
2008,04,01,00,09,0.00
2008,04,01,00,10,0.00
2008,04,01,00,11,0.00
2008,04,01,00,12,0.00
2008,04,01,00,13,0.00
2008,04,01,00,14,0.00
2008,04,01,00,15,0.00
2008,04,01,00,16,0.00
2008,04,01,00,17,0.00
2008,04,01,00,18,0.00
2008,04,01,00,19,0.00
2008,04,01,00,20,0.00
2008,04,01,00,21,0.00
2008,04,01,00,22,0.00
2008,04,01,00,23,0.00
2008,04,01,00,24,0.00
2008,04,01,00,25,0.00
2008,04,01,00,26,0.00
2008,04,01,00,27,0.00
2008,04,01,00,28,0.00
2008,04,01,00,29,0.00
2008,04,01,00,30,0.00
2008,04,01,00,31,0.00
2008,04,01,00,32,0.00
2008,04,01,00,33,0.00
2008,04,01,00,34,0.00
2008,04,01,00,35,0.00
2008,04,01,00,36,0.00
2008,04,01,00,37,0.00
2008,04,01,00,38,0.00
2008,04,01,00,39,0.00
2008,04,01,00,40,0.00
2008,04,01,00,41,0.00
2008,04,01,00,42,0.00
2008,04,01,00,43,0.00
2008,04,01,00,44,0.00
2008,04,01,00,45,0.00
2008,04,01,00,46,0.00
2008,04,01,00,47,0.00
2008,04,01,00,48,0.00
2008,04,01,00,49,0.00
2008,04,01,00,50,0.00
2008,04,01,00,51,0.00
2008,04,01,00,52,0.00
2008,04,01,00,53,0.00
2008,04,01,00,54,0.00
2008,04,01,00,55,0.00
2008,04,01,00,56,0.00
2008,04,01,00,57,0.00
2008,04,01,00,58,0.00
2008,04,01,00,59,0.00
2008,04,01,01,00,0.00
2008,04,01,01,01,0.00
2008,04,01,01,02,0.00
2008,04,01,01,03,0.00
2008,04,01,01,04,0.00
2008,04,01,01,05,0.00
2008,04,01,01,06,0.00
2008,04,01,01,07,0.00
2008,04,01,01,08,0.00
2008,04,01,01,09,0.00
2008,04,01,01,10,0.00
2008,04,01,01,11,0.00
2008,04,01,01,12,0.00
2008,04,01,01,13,0.00
2008,04,01,01,14,0.00
2008,04,01,01,15,0.00
2008,04,01,01,16,0.00
2008,04,01,01,17,0.00
2008,04,01,01,18,0.00
2008,04,01,01,19,0.00
2008,04,01,01,20,0.00
2008,04,01,01,21,0.00
2008,04,01,01,22,0.00
2008,04,01,01,23,0.00
2008,04,01,01,24,0.00
2008,04,01,01,25,0.00
2008,04,01,01,26,0.00
2008,04,01,01,27,0.00
2008,04,01,01,28,0.00
2008,04,01,01,29,0.00
2008,04,01,01,30,0.00
2008,04,01,01,31,0.00
2008,04,01,01,32,0.00
2008,04,01,01,33,0.00
2008,04,01,01,34,0.00
2008,04,01,01,35,0.00
2008,04,01,01,36,0.00
2008,04,01,01,37,0.00
2008,04,01,01,38,0.00
2008,04,01,01,39,0.00
2008,04,01,01,40,0.00
2008,04,01,01,41,0.00
2008,04,01,01,42,0.00
2008,04,01,01,43,0.00
2008,04,01,01,44,0.00
2008,04,01,01,45,0.00
2008,04,01,01,46,0.00
2008,04,01,01,47,0.00
2008,04,01,01,48,0.00
2008,04,01,01,49,0.00
2008,04,01,01,50,0.00
2008,04,01,01,51,0.00
2008,04,01,01,52,0.00
2008,04,01,01,53,0.00
2008,04,01,01,54,0.00
2008,04,01,01,55,0.00
2008,04,01,01,56,0.00
2008,04,01,01,57,0.00
2008,04,01,01,58,0.00
2008,04,01,01,59,0.00
2008,04,01,02,00,0.00
2008,04,01,02,01,0.00
2008,04,01,02,02,0.00
2008,04,01,02,03,0.00
2008,04,01,02,04,0.00
2008,04,01,02,05,0.00
2008,04,01,02,06,0.00
2008,04,01,02,07,0.00
2008,04,01,02,08,0.00
2008,04,01,02,09,0.00
2008,04,01,02,10,0.00
2008,04,01,02,11,0.00
2008,04,01,02,12,0.00
2008,04,01,02,13,0.00
2008,04,01,02,14,0.00
2008,04,01,02,15,0.00
2008,04,01,02,16,0.00
2008,04,01,02,17,0.00
2008,04,01,02,18,0.00
2008,04,01,02,19,0.00
2008,04,01,02,20,0.00
2008,04,01,02,21,0.00
2008,04,01,02,22,0.00
2008,04,01,02,23,0.00
2008,04,01,02,24,0.00
2008,04,01,02,25,0.00
2008,04,01,02,26,0.00
2008,04,01,02,27,0.00
2008,04,01,02,28,0.00
2008,04,01,02,29,0.00
2008,04,01,02,30,0.00
2008,04,01,02,31,0.00
2008,04,01,02,32,0.00
2008,04,01,02,33,0.00
2008,04,01,02,34,0.00
2008,04,01,02,35,0.00
2008,04,01,02,36,0.00
2008,04,01,02,37,0.00
2008,04,01,02,38,0.00
2008,04,01,02,39,0.00
2008,04,01,02,40,0.00
2008,04,01,02,41,0.00
2008,04,01,02,42,0.00
2008,04,01,02,43,0.00
2008,04,01,02,44,0.00
2008,04,01,02,45,0.00
2008,04,01,02,46,0.00
2008,04,01,02,47,0.00
2008,04,01,02,48,0.00
2008,04,01,02,49,0.00
2008,04,01,02,50,0.00
2008,04,01,02,51,0.00
2008,04,01,02,52,0.00
2008,04,01,02,53,0.00
2008,04,01,02,54,0.00
2008,04,01,02,55,0.00
2008,04,01,02,56,0.00
2008,04,01,02,57,0.00
2008,04,01,02,58,0.00
2008,04,01,02,59,0.00
2008,04,01,03,00,0.00
2008,04,01,03,01,0.00
2008,04,01,03,02,0.00
2008,04,01,03,03,0.00
2008,04,01,03,04,0.00
2008,04,01,03,05,0.00
2008,04,01,03,06,0.00
2008,04,01,03,07,0.00
2008,04,01,03,08,0.00
2008,04,01,03,09,0.00
2008,04,01,03,10,0.00
2008,04,01,03,11,0.00
2008,04,01,03,12,0.00
2008,04,01,03,13,0.00
2008,04,01,03,14,0.00
2008,04,01,03,15,0.00
2008,04,01,03,16,0.00
2008,04,01,03,17,0.00
2008,04,01,03,18,0.00
2008,04,01,03,19,0.00
2008,04,01,03,20,0.00
2008,04,01,03,21,0.00
2008,04,01,03,22,0.00
2008,04,01,03,23,0.00
2008,04,01,03,24,0.00
2008,04,01,03,25,0.00
2008,04,01,03,26,0.00
2008,04,01,03,27,0.00
2008,04,01,03,28,0.00
2008,04,01,03,29,0.00
2008,04,01,03,30,0.00
2008,04,01,03,31,0.00
2008,04,01,03,32,0.00
2008,04,01,03,33,0.00
2008,04,01,03,34,0.00
2008,04,01,03,35,0.00
2008,04,01,03,36,0.00
2008,04,01,03,37,0.00
2008,04,01,03,38,0.00
2008,04,01,03,39,0.00
2008,04,01,03,40,0.00
2008,04,01,03,41,0.00
2008,04,01,03,42,0.00
2008,04,01,03,43,0.00
2008,04,01,03,44,0.00
2008,04,01,03,45,0.00
2008,04,01,03,46,0.00
2008,04,01,03,47,0.00
2008,04,01,03,48,0.00
2008,04,01,03,49,0.00
2008,04,01,03,50,0.00
2008,04,01,03,51,0.00
2008,04,01,03,52,0.00
2008,04,01,03,53,0.00
2008,04,01,03,54,0.00
2008,04,01,03,55,0.00
2008,04,01,03,56,0.00
2008,04,01,03,57,0.00
2008,04,01,03,58,0.00
2008,04,01,03,59,0.00
2008,04,01,04,00,0.00
2008,04,01,04,01,0.00
2008,04,01,04,02,0.00
2008,04,01,04,03,0.00
2008,04,01,04,04,0.00
2008,04,01,04,05,0.00
2008,04,01,04,06,0.00
2008,04,01,04,07,0.00
2008,04,01,04,08,0.00
2008,04,01,04,09,0.00
2008,04,01,04,10,0.00
2008,04,01,04,11,0.00
2008,04,01,04,12,0.00
2008,04,01,04,13,0.00
2008,04,01,04,14,0.00
2008,04,01,04,15,0.00
2008,04,01,04,16,0.00
2008,04,01,04,17,0.00
2008,04,01,04,18,0.00
2008,04,01,04,19,0.00
2008,04,01,04,20,0.00
2008,04,01,04,21,0.00
2008,04,01,04,22,0.00
2008,04,01,04,23,0.00
2008,04,01,04,24,0.00
2008,04,01,04,25,0.00
2008,04,01,04,26,0.00
2008,04,01,04,27,0.00
2008,04,01,04,28,0.00
2008,04,01,04,29,0.00
2008,04,01,04,30,0.00
2008,04,01,04,31,0.00
2008,04,01,04,32,0.00
2008,04,01,04,33,0.00
2008,04,01,04,34,0.00
2008,04,01,04,35,0.00
2008,04,01,04,36,0.00
2008,04,01,04,37,0.00
2008,04,01,04,38,0.00
2008,04,01,04,39,0.00
2008,04,01,04,40,0.00
2008,04,01,04,41,0.00
2008,04,01,04,42,0.00
2008,04,01,04,43,0.00
2008,04,01,04,44,0.00
2008,04,01,04,45,0.00
2008,04,01,04,46,0.00
2008,04,01,04,47,0.00
2008,04,01,04,48,0.00
2008,04,01,04,49,0.00
2008,04,01,04,50,0.00
2008,04,01,04,51,0.00
2008,04,01,04,52,0.00
2008,04,01,04,53,0.00
2008,04,01,04,54,0.00
2008,04,01,04,55,0.00
2008,04,01,04,56,0.00
2008,04,01,04,57,0.00
2008,04,01,04,58,0.00
2008,04,01,04,59,0.00
2008,04,01,05,00,0.00
2008,04,01,05,01,0.00
2008,04,01,05,02,0.00
2008,04,01,05,03,0.00
2008,04,01,05,04,0.00
2008,04,01,05,05,0.00
2008,04,01,05,06,0.00
2008,04,01,05,07,0.00
2008,04,01,05,08,0.00
2008,04,01,05,09,0.00
2008,04,01,05,10,0.00
2008,04,01,05,11,0.00
2008,04,01,05,12,0.00
2008,04,01,05,13,0.00
2008,04,01,05,14,0.00
2008,04,01,05,15,0.00
2008,04,01,05,16,0.00
2008,04,01,05,17,0.00
2008,04,01,05,18,0.00
2008,04,01,05,19,0.00
2008,04,01,05,20,0.00
2008,04,01,05,21,0.00
2008,04,01,05,22,0.00
2008,04,01,05,23,0.00
2008,04,01,05,24,0.00
2008,04,01,05,25,0.00
2008,04,01,05,26,0.00
2008,04,01,05,27,0.00
2008,04,01,05,28,0.00
2008,04,01,05,29,0.00
2008,04,01,05,30,0.00
2008,04,01,05,31,0.00
2008,04,01,05,32,0.00
2008,04,01,05,33,0.00
2008,04,01,05,34,0.00
2008,04,01,05,35,0.00
2008,04,01,05,36,0.00
2008,04,01,05,37,0.00
2008,04,01,05,38,0.00
2008,04,01,05,39,0.00
2008,04,01,05,40,0.00
2008,04,01,05,41,0.00
2008,04,01,05,42,0.00
2008,04,01,05,43,0.00
2008,04,01,05,44,0.00
2008,04,01,05,45,0.00
2008,04,01,05,46,0.00
2008,04,01,05,47,0.00
2008,04,01,05,48,0.00
2008,04,01,05,49,0.00
2008,04,01,05,50,0.00
2008,04,01,05,51,0.00
2008,04,01,05,52,0.00
2008,04,01,05,53,0.00
2008,04,01,05,54,0.00
2008,04,01,05,55,0.00
2008,04,01,05,56,0.00
2008,04,01,05,57,0.00
2008,04,01,05,58,0.00
2008,04,01,05,59,0.00
2008,04,01,06,00,0.00
2008,04,01,06,01,0.00
2008,04,01,06,02,0.00
2008,04,01,06,03,0.00
2008,04,01,06,04,0.00
2008,04,01,06,05,0.00
2008,04,01,06,06,0.00
2008,04,01,06,07,0.00
2008,04,01,06,08,0.00
2008,04,01,06,09,0.00
2008,04,01,06,10,0.00
2008,04,01,06,11,0.00
2008,04,01,06,12,0.00
2008,04,01,06,13,0.00
2008,04,01,06,14,0.00
2008,04,01,06,15,0.00
2008,04,01,06,16,0.00
2008,04,01,06,17,0.00
2008,04,01,06,18,0.00
2008,04,01,06,19,0.00
2008,04,01,06,20,0.00
2008,04,01,06,21,0.00
2008,04,01,06,22,0.00
2008,04,01,06,23,0.00
2008,04,01,06,24,0.00
2008,04,01,06,25,0.00
2008,04,01,06,26,0.00
2008,04,01,06,27,0.00
2008,04,01,06,28,0.00
2008,04,01,06,29,0.00
2008,04,01,06,30,0.00
2008,04,01,06,31,0.00
2008,04,01,06,32,0.00
2008,04,01,06,33,0.00
2008,04,01,06,34,0.00
2008,04,01,06,35,0.00
2008,04,01,06,36,0.00
2008,04,01,06,37,0.00
2008,04,01,06,38,0.00
2008,04,01,06,39,0.00
2008,04,01,06,40,0.00
2008,04,01,06,41,0.00
2008,04,01,06,42,0.00
2008,04,01,06,43,0.00
2008,04,01,06,44,0.00
2008,04,01,06,45,0.00
2008,04,01,06,46,0.00
2008,04,01,06,47,0.00
2008,04,01,06,48,0.00
2008,04,01,06,49,3.10
2008,04,01,06,50,5.00
2008,04,01,06,51,5.00
2008,04,01,06,52,5.20
2008,04,01,06,53,7.00
2008,04,01,06,54,7.00
2008,04,01,06,55,7.00
2008,04,01,06,56,8.20
2008,04,01,06,57,9.00
2008,04,01,06,58,9.00
2008,04,01,06,59,10.90
2008,04,01,07,00,11.00
2008,04,01,07,01,11.40
2008,04,01,07,02,12.00
2008,04,01,07,03,12.00
2008,04,01,07,04,13.60
2008,04,01,07,05,14.00
2008,04,01,07,06,14.20
2008,04,01,07,07,16.00
2008,04,01,07,08,16.00
2008,04,01,07,09,16.90
2008,04,01,07,10,18.00
2008,04,01,07,11,18.00
2008,04,01,07,12,18.00
2008,04,01,07,13,19.00
2008,04,01,07,14,19.00
2008,04,01,07,15,19.80
2008,04,01,07,16,21.00
2008,04,01,07,17,21.00
2008,04,01,07,18,21.00
2008,04,01,07,19,23.00
2008,04,01,07,20,23.00
2008,04,01,07,21,23.80
2008,04,01,07,22,28.90
2008,04,01,07,23,33.00
2008,04,01,07,24,29.50
2008,04,01,07,25,32.20
2008,04,01,07,26,40.00
2008,04,01,07,27,37.00
2008,04,01,07,28,37.80
2008,04,01,07,29,40.00
2008,04,01,07,30,36.00
2008,04,01,07,31,29.20
2008,04,01,07,32,29.60
2008,04,01,07,33,30.00
2008,04,01,07,34,30.20
2008,04,01,07,35,32.00
2008,04,01,07,36,32.00
2008,04,01,07,37,30.90
2008,04,01,07,38,30.00
2008,04,01,07,39,31.70
2008,04,01,07,40,35.00
2008,04,01,07,41,43.60
2008,04,01,07,42,58.50
2008,04,01,07,43,66.60
2008,04,01,07,44,69.00
2008,04,01,07,45,79.90
2008,04,01,07,46,96.20
2008,04,01,07,47,104.00
2008,04,01,07,48,114.50
2008,04,01,07,49,118.50
2008,04,01,07,50,121.20
2008,04,01,07,51,123.00
2008,04,01,07,52,125.90
2008,04,01,07,53,127.80
2008,04,01,07,54,130.00
2008,04,01,07,55,132.40
2008,04,01,07,56,135.50
2008,04,01,07,57,138.60
2008,04,01,07,58,141.60
2008,04,01,07,59,143.40
2008,04,01,08,00,145.60
2008,04,01,08,01,146.00
2008,04,01,08,02,148.10
2008,04,01,08,03,149.60
2008,04,01,08,04,151.00
2008,04,01,08,05,153.10
2008,04,01,08,06,155.70
2008,04,01,08,07,157.60
2008,04,01,08,08,159.70
2008,04,01,08,09,162.10
2008,04,01,08,10,163.00
2008,04,01,08,11,164.60
2008,04,01,08,12,167.00
2008,04,01,08,13,168.40
2008,04,01,08,14,170.60
2008,04,01,08,15,172.00
2008,04,01,08,16,172.20
2008,04,01,08,17,174.00
2008,04,01,08,18,174.80
2008,04,01,08,19,176.00
2008,04,01,08,20,177.40
2008,04,01,08,21,178.80
2008,04,01,08,22,182.40
2008,04,01,08,23,185.40
2008,04,01,08,24,188.50
2008,04,01,08,25,190.70
2008,04,01,08,26,193.60
2008,04,01,08,27,195.00
2008,04,01,08,28,199.10
2008,04,01,08,29,201.70
2008,04,01,08,30,205.90
2008,04,01,08,31,207.80
2008,04,01,08,32,211.70
2008,04,01,08,33,214.60
2008,04,01,08,34,217.40
2008,04,01,08,35,220.50
2008,04,01,08,36,222.70
2008,04,01,08,37,227.20
2008,04,01,08,38,229.80
2008,04,01,08,39,232.80
2008,04,01,08,40,235.80
2008,04,01,08,41,238.30
2008,04,01,08,42,240.40
2008,04,01,08,43,244.00
2008,04,01,08,44,246.50
2008,04,01,08,45,250.30
2008,04,01,08,46,252.60
2008,04,01,08,47,256.10
2008,04,01,08,48,258.90
2008,04,01,08,49,261.40
2008,04,01,08,50,265.00
2008,04,01,08,51,269.00
2008,04,01,08,52,271.90
2008,04,01,08,53,275.60
2008,04,01,08,54,278.50
2008,04,01,08,55,283.20
2008,04,01,08,56,286.70
2008,04,01,08,57,290.00
2008,04,01,08,58,293.90
2008,04,01,08,59,296.20
2008,04,01,09,00,299.70
2008,04,01,09,01,302.60
2008,04,01,09,02,305.40
2008,04,01,09,03,307.50
2008,04,01,09,04,311.00
2008,04,01,09,05,313.20
2008,04,01,09,06,315.70
2008,04,01,09,07,319.60
2008,04,01,09,08,322.50
2008,04,01,09,09,324.20
2008,04,01,09,10,328.30
2008,04,01,09,11,330.00
2008,04,01,09,12,330.70
2008,04,01,09,13,336.00
2008,04,01,09,14,338.10
2008,04,01,09,15,342.00
2008,04,01,09,16,344.40
2008,04,01,09,17,345.80
2008,04,01,09,18,348.00
2008,04,01,09,19,351.90
2008,04,01,09,20,354.00
2008,04,01,09,21,357.80
2008,04,01,09,22,359.00
2008,04,01,09,23,362.50
2008,04,01,09,24,366.50
2008,04,01,09,25,369.00
2008,04,01,09,26,373.00
2008,04,01,09,27,374.50
2008,04,01,09,28,377.60
2008,04,01,09,29,381.80
2008,04,01,09,30,384.20
2008,04,01,09,31,387.50
2008,04,01,09,32,389.70
2008,04,01,09,33,392.50
2008,04,01,09,34,396.30
2008,04,01,09,35,398.60
2008,04,01,09,36,401.90
2008,04,01,09,37,403.00
2008,04,01,09,38,405.50
2008,04,01,09,39,408.00
2008,04,01,09,40,410.40
2008,04,01,09,41,413.50
2008,04,01,09,42,416.00
2008,04,01,09,43,418.00
2008,04,01,09,44,421.70
2008,04,01,09,45,424.90
2008,04,01,09,46,427.00
2008,04,01,09,47,431.10
2008,04,01,09,48,432.40
2008,04,01,09,49,434.80
2008,04,01,09,50,437.10
2008,04,01,09,51,440.20
2008,04,01,09,52,442.70
2008,04,01,09,53,446.00
2008,04,01,09,54,450.00
2008,04,01,09,55,450.90
2008,04,01,09,56,454.40
2008,04,01,09,57,457.20
2008,04,01,09,58,461.20
2008,04,01,09,59,463.70
2008,04,01,10,00,466.00
2008,04,01,10,01,468.00
2008,04,01,10,02,470.80
2008,04,01,10,03,475.00
2008,04,01,10,04,476.50
2008,04,01,10,05,479.40
2008,04,01,10,06,482.10
2008,04,01,10,07,485.00
2008,04,01,10,08,487.40
2008,04,01,10,09,490.60
2008,04,01,10,10,492.80
2008,04,01,10,11,494.00
2008,04,01,10,12,495.70
2008,04,01,10,13,500.30
2008,04,01,10,14,501.00
2008,04,01,10,15,506.20
2008,04,01,10,16,509.10
2008,04,01,10,17,512.40
2008,04,01,10,18,513.00
2008,04,01,10,19,514.20
2008,04,01,10,20,518.30
2008,04,01,10,21,520.00
2008,04,01,10,22,524.20
2008,04,01,10,23,527.20
2008,04,01,10,24,532.00
2008,04,01,10,25,535.00
2008,04,01,10,26,538.80
2008,04,01,10,27,538.40
2008,04,01,10,28,539.70
2008,04,01,10,29,541.50
2008,04,01,10,30,545.60
2008,04,01,10,31,548.30
2008,04,01,10,32,551.10
2008,04,01,10,33,558.50
2008,04,01,10,34,556.00
2008,04,01,10,35,559.00
2008,04,01,10,36,563.30
2008,04,01,10,37,567.40
2008,04,01,10,38,573.50
2008,04,01,10,39,577.50
2008,04,01,10,40,578.00
2008,04,01,10,41,579.60
2008,04,01,10,42,583.40
2008,04,01,10,43,582.20
2008,04,01,10,44,584.80
2008,04,01,10,45,587.90
2008,04,01,10,46,590.30
2008,04,01,10,47,593.40
2008,04,01,10,48,594.00
2008,04,01,10,49,596.00
2008,04,01,10,50,596.70
2008,04,01,10,51,603.40
2008,04,01,10,52,605.30
2008,04,01,10,53,608.10
2008,04,01,10,54,612.10
2008,04,01,10,55,614.70
2008,04,01,10,56,621.00
2008,04,01,10,57,621.80
2008,04,01,10,58,628.20
2008,04,01,10,59,629.70
2008,04,01,11,00,633.10
2008,04,01,11,01,633.80
2008,04,01,11,02,637.10
2008,04,01,11,03,645.00
2008,04,01,11,04,658.60
2008,04,01,11,05,674.10
2008,04,01,11,06,684.00
2008,04,01,11,07,684.00
2008,04,01,11,08,695.60
2008,04,01,11,09,704.20
2008,04,01,11,10,712.00
2008,04,01,11,11,712.80
2008,04,01,11,12,719.10
2008,04,01,11,13,730.20
2008,04,01,11,14,745.40
2008,04,01,11,15,761.90
2008,04,01,11,16,773.50
2008,04,01,11,17,789.00
2008,04,01,11,18,804.10
2008,04,01,11,19,821.00
2008,04,01,11,20,821.00
2008,04,01,11,21,769.30
2008,04,01,11,22,739.60
2008,04,01,11,23,744.00
2008,04,01,11,24,316.00
2008,04,01,11,25,345.60
2008,04,01,11,26,353.00
2008,04,01,11,27,569.40
2008,04,01,11,28,836.30
2008,04,01,11,29,833.00
2008,04,01,11,30,833.00
2008,04,01,11,31,290.00
2008,04,01,11,32,296.60
2008,04,01,11,33,295.20
2008,04,01,11,34,287.80
2008,04,01,11,35,295.00
2008,04,01,11,36,338.70
2008,04,01,11,37,360.00
2008,04,01,11,38,360.00
2008,04,01,11,39,332.00
2008,04,01,11,40,265.80
2008,04,01,11,41,251.00
2008,04,01,11,42,234.30
2008,04,01,11,43,216.30
2008,04,01,11,44,206.90
2008,04,01,11,45,195.00
2008,04,01,11,46,202.00
2008,04,01,11,47,202.00
2008,04,01,11,48,400.80
2008,04,01,11,49,771.00
2008,04,01,11,50,765.50
2008,04,01,11,51,763.00
2008,04,01,11,52,740.00
2008,04,01,11,53,726.20
2008,04,01,11,54,719.80
2008,04,01,11,55,715.00
2008,04,01,11,56,715.00
2008,04,01,11,57,717.70
2008,04,01,11,58,717.40
2008,04,01,11,59,715.30
2008,04,01,12,00,715.50
2008,04,01,12,01,718.60
2008,04,01,12,02,717.00
2008,04,01,12,03,717.00
2008,04,01,12,04,719.80
2008,04,01,12,05,721.00
2008,04,01,12,06,717.00
2008,04,01,12,07,718.30
2008,04,01,12,08,715.00
2008,04,01,12,09,715.00
2008,04,01,12,10,713.30
2008,04,01,12,11,714.10
2008,04,01,12,12,716.80
2008,04,01,12,13,717.00
2008,04,01,12,14,719.10
2008,04,01,12,15,720.50
2008,04,01,12,16,721.10
2008,04,01,12,17,722.80
2008,04,01,12,18,724.90
2008,04,01,12,19,724.40
2008,04,01,12,20,722.00
2008,04,01,12,21,728.80
2008,04,01,12,22,731.00
2008,04,01,12,23,731.70
2008,04,01,12,24,733.00
2008,04,01,12,25,734.40
2008,04,01,12,26,737.50
2008,04,01,12,27,738.00
2008,04,01,12,28,743.80
2008,04,01,12,29,742.90
2008,04,01,12,30,745.90
2008,04,01,12,31,748.10
2008,04,01,12,32,750.40
2008,04,01,12,33,751.00
2008,04,01,12,34,758.00
2008,04,01,12,35,759.00
2008,04,01,12,36,761.40
2008,04,01,12,37,768.00
2008,04,01,12,38,768.00
2008,04,01,12,39,766.60
2008,04,01,12,40,763.80
2008,04,01,12,41,759.20
2008,04,01,12,42,759.00
2008,04,01,12,43,758.80
2008,04,01,12,44,756.50
2008,04,01,12,45,752.50
2008,04,01,12,46,748.30
2008,04,01,12,47,745.50
2008,04,01,12,48,748.40
2008,04,01,12,49,746.80
2008,04,01,12,50,744.80
2008,04,01,12,51,744.00
2008,04,01,12,52,744.00
2008,04,01,12,53,741.20
2008,04,01,12,54,741.40
2008,04,01,12,55,742.00
2008,04,01,12,56,745.00
2008,04,01,12,57,745.00
2008,04,01,12,58,746.80
2008,04,01,12,59,750.10
2008,04,01,13,00,751.70
2008,04,01,13,01,752.00
2008,04,01,13,02,752.00
2008,04,01,13,03,752.00
2008,04,01,13,04,753.10
2008,04,01,13,05,755.20
2008,04,01,13,06,755.10
2008,04,01,13,07,756.00
2008,04,01,13,08,757.70
2008,04,01,13,09,758.00
2008,04,01,13,10,763.30
2008,04,01,13,11,765.80
2008,04,01,13,12,769.60
2008,04,01,13,13,773.60
2008,04,01,13,14,779.20
2008,04,01,13,15,788.40
2008,04,01,13,16,777.00
2008,04,01,13,17,782.70
2008,04,01,13,18,784.90
2008,04,01,13,19,779.90
2008,04,01,13,20,777.00
2008,04,01,13,21,774.60
2008,04,01,13,22,770.50
2008,04,01,13,23,765.00
2008,04,01,13,24,735.30
2008,04,01,13,25,713.10
2008,04,01,13,26,707.00
2008,04,01,13,27,707.00
2008,04,01,13,28,679.50
2008,04,01,13,29,702.40
2008,04,01,13,30,717.00
2008,04,01,13,31,714.50
2008,04,01,13,32,716.20
2008,04,01,13,33,711.70
2008,04,01,13,34,707.40
2008,04,01,13,35,705.60
2008,04,01,13,36,723.00
2008,04,01,13,37,733.00
2008,04,01,13,38,739.20
2008,04,01,13,39,735.20
2008,04,01,13,40,741.10
2008,04,01,13,41,741.10
2008,04,01,13,42,738.50
2008,04,01,13,43,730.40
2008,04,01,13,44,722.00
2008,04,01,13,45,722.20
2008,04,01,13,46,735.20
2008,04,01,13,47,744.30
2008,04,01,13,48,744.50
2008,04,01,13,49,741.30
2008,04,01,13,50,737.40
2008,04,01,13,51,742.00
2008,04,01,13,52,744.00
2008,04,01,13,53,744.00
2008,04,01,13,54,744.40
2008,04,01,13,55,746.10
2008,04,01,13,56,748.40
2008,04,01,13,57,753.20
2008,04,01,13,58,757.80
2008,04,01,13,59,761.20
2008,04,01,14,00,763.60
2008,04,01,14,01,767.30
2008,04,01,14,02,768.50
2008,04,01,14,03,766.00
2008,04,01,14,04,771.30
2008,04,01,14,05,770.00
2008,04,01,14,06,751.30
2008,04,01,14,07,702.70
2008,04,01,14,08,663.10
2008,04,01,14,09,661.10
2008,04,01,14,10,670.30
2008,04,01,14,11,673.30
2008,04,01,14,12,626.00
2008,04,01,14,13,635.50
2008,04,01,14,14,652.40
2008,04,01,14,15,647.00
2008,04,01,14,16,661.40
2008,04,01,14,17,666.70
2008,04,01,14,18,669.00
2008,04,01,14,19,673.00
2008,04,01,14,20,687.10
2008,04,01,14,21,670.60
2008,04,01,14,22,635.40
2008,04,01,14,23,552.10
2008,04,01,14,24,509.20
2008,04,01,14,25,525.40
2008,04,01,14,26,510.00
2008,04,01,14,27,477.00
2008,04,01,14,28,468.40
2008,04,01,14,29,457.80
2008,04,01,14,30,434.40
2008,04,01,14,31,424.40
2008,04,01,14,32,429.60
2008,04,01,14,33,441.00
2008,04,01,14,34,431.60
2008,04,01,14,35,437.00
2008,04,01,14,36,467.60
2008,04,01,14,37,512.60
2008,04,01,14,38,537.70
2008,04,01,14,39,510.50
2008,04,01,14,40,519.30
2008,04,01,14,41,565.10
2008,04,01,14,42,603.50
2008,04,01,14,43,626.70
2008,04,01,14,44,628.60
2008,04,01,14,45,631.80
2008,04,01,14,46,626.60
2008,04,01,14,47,621.00
2008,04,01,14,48,583.00
2008,04,01,14,49,577.20
2008,04,01,14,50,585.00
2008,04,01,14,51,574.40
2008,04,01,14,52,569.50
2008,04,01,14,53,562.80
2008,04,01,14,54,561.00
2008,04,01,14,55,577.00
2008,04,01,14,56,578.60
2008,04,01,14,57,591.70
2008,04,01,14,58,603.40
2008,04,01,14,59,595.90
2008,04,01,15,00,589.90
2008,04,01,15,01,580.50
2008,04,01,15,02,540.80
2008,04,01,15,03,524.50
2008,04,01,15,04,515.70
2008,04,01,15,05,505.70
2008,04,01,15,06,523.40
2008,04,01,15,07,544.30
2008,04,01,15,08,543.00
2008,04,01,15,09,538.90
2008,04,01,15,10,506.60
2008,04,01,15,11,511.60
2008,04,01,15,12,506.00
2008,04,01,15,13,510.30
2008,04,01,15,14,530.30
2008,04,01,15,15,531.00
2008,04,01,15,16,484.80
2008,04,01,15,17,458.40
2008,04,01,15,18,464.40
2008,04,01,15,19,480.60
2008,04,01,15,20,480.30
2008,04,01,15,21,469.80
2008,04,01,15,22,482.00
2008,04,01,15,23,495.80
2008,04,01,15,24,502.20
2008,04,01,15,25,502.90
2008,04,01,15,26,504.30
2008,04,01,15,27,513.10
2008,04,01,15,28,505.90
2008,04,01,15,29,495.40
2008,04,01,15,30,486.50
2008,04,01,15,31,483.00
2008,04,01,15,32,483.80
2008,04,01,15,33,483.40
2008,04,01,15,34,470.00
2008,04,01,15,35,462.00
2008,04,01,15,36,432.00
2008,04,01,15,37,413.00
2008,04,01,15,38,401.60
2008,04,01,15,39,391.10
2008,04,01,15,40,381.30
2008,04,01,15,41,369.50
2008,04,01,15,42,364.40
2008,04,01,15,43,364.00
2008,04,01,15,44,380.50
2008,04,01,15,45,400.40
2008,04,01,15,46,411.80
2008,04,01,15,47,438.70
2008,04,01,15,48,465.70
2008,04,01,15,49,465.20
2008,04,01,15,50,438.00
2008,04,01,15,51,438.10
2008,04,01,15,52,460.90
2008,04,01,15,53,483.00
2008,04,01,15,54,496.20
2008,04,01,15,55,517.80
2008,04,01,15,56,519.50
2008,04,01,15,57,515.00
2008,04,01,15,58,526.60
2008,04,01,15,59,530.40
2008,04,01,16,00,530.60
2008,04,01,16,01,536.20
2008,04,01,16,02,544.20
2008,04,01,16,03,549.10
2008,04,01,16,04,550.00
2008,04,01,16,05,551.50
2008,04,01,16,06,547.30
2008,04,01,16,07,543.50
2008,04,01,16,08,541.00
2008,04,01,16,09,526.10
2008,04,01,16,10,511.20
2008,04,01,16,11,524.50
2008,04,01,16,12,506.00
2008,04,01,16,13,506.00
2008,04,01,16,14,344.20
2008,04,01,16,15,134.20
2008,04,01,16,16,127.80
2008,04,01,16,17,92.10
2008,04,01,16,18,97.00
2008,04,01,16,19,111.00
2008,04,01,16,20,111.00
2008,04,01,16,21,111.00
2008,04,01,16,22,111.00
2008,04,01,16,23,111.00
2008,04,01,16,24,138.20
2008,04,01,16,25,144.00
2008,04,01,16,26,177.90
2008,04,01,16,27,484.40
2008,04,01,16,28,485.80
2008,04,01,16,29,457.40
2008,04,01,16,30,439.00
2008,04,01,16,31,289.00
2008,04,01,16,32,364.00
2008,04,01,16,33,372.10
2008,04,01,16,34,437.20
2008,04,01,16,35,394.20
2008,04,01,16,36,320.40
2008,04,01,16,37,276.00
2008,04,01,16,38,121.00
2008,04,01,16,39,162.00
2008,04,01,16,40,162.00
2008,04,01,16,41,230.20
2008,04,01,16,42,453.20
2008,04,01,16,43,455.00
2008,04,01,16,44,454.30
2008,04,01,16,45,454.00
2008,04,01,16,46,457.00
2008,04,01,16,47,445.40
2008,04,01,16,48,351.00
2008,04,01,16,49,411.10
2008,04,01,16,50,449.00
2008,04,01,16,51,445.00
2008,04,01,16,52,357.70
2008,04,01,16,53,364.00
2008,04,01,16,54,417.20
2008,04,01,16,55,431.40
2008,04,01,16,56,419.20
2008,04,01,16,57,406.60
2008,04,01,16,58,403.00
2008,04,01,16,59,403.00
2008,04,01,17,00,419.30
2008,04,01,17,01,416.80
2008,04,01,17,02,415.50
2008,04,01,17,03,417.00
2008,04,01,17,04,217.80
2008,04,01,17,05,90.30
2008,04,01,17,06,88.30
2008,04,01,17,07,90.00
2008,04,01,17,08,97.40
2008,04,01,17,09,93.90
2008,04,01,17,10,98.10
2008,04,01,17,11,101.10
2008,04,01,17,12,103.20
2008,04,01,17,13,112.30